Time,TemperatureF,DewpointF,PressureIn,WindDirection,WindDirectionDegrees,WindSpeedMPH,WindSpeedGustMPH,Humidity,HourlyPrecipIn,Conditions,Clouds,dailyrainin,SolarRadiationWatts/m^2,SoftwareType,DateUTC
2013-04-20 00:09:00,47.8,37.0,30.16,NE,51,2.0,3.0,66,0.00,,,0.00,0,weatherlink.com 1.10,2013-04-20 05:09:00,
2013-04-20 00:24:00,47.8,37.0,30.16,NE,51,4.0,5.0,66,0.00,,,0.00,0,weatherlink.com 1.10,2013-04-20 05:24:00,
2013-04-20 00:39:00,47.8,36.0,30.16,NE,51,1.0,3.0,65,0.00,,,0.00,0,weatherlink.com 1.10,2013-04-20 05:39:00,
2013-04-20 00:54:00,47.7,36.0,30.16,NE,51,3.0,5.0,64,0.00,,,0.00,0,weatherlink.com 1.10,2013-04-20 05:54:00,
2013-04-20 01:09:00,46.7,36.0,30.15,NE,51,3.0,4.0,66,0.00,,,0.00,0,weatherlink.com 1.10,2013-04-20 06:09:00,
2013-04-20 01:24:00,46.5,36.0,30.16,NE,50,2.0,4.0,66,0.00,,,0.00,0,weatherlink.com 1.10,2013-04-20 06:24:00,
2013-04-20 01:39:00,45.7,36.0,30.15,NE,51,2.0,5.0,69,0.00,,,0.00,0,weatherlink.com 1.10,2013-04-20 06:39:00,
2013-04-20 01:54:00,45.5,36.0,30.14,ENE,62,5.0,8.0,69,0.00,,,0.00,0,weatherlink.com 1.10,2013-04-20 06:54:00,
2013-04-20 02:09:00,45.3,36.0,30.14,ENE,62,3.0,5.0,69,0.00,,,0.00,0,weatherlink.com 1.10,2013-04-20 07:09:00,
2013-04-20 02:24:00,45.1,36.0,30.14,ENE,62,4.0,5.0,70,0.00,,,0.00,0,weatherlink.com 1.10,2013-04-20 07:24:00,
2013-04-20 02:39:00,44.9,36.0,30.13,ENE,65,3.0,8.0,70,0.00,,,0.00,0,weatherlink.com 1.10,2013-04-20 07:39:00,
2013-04-20 02:54:00,44.5,36.0,30.13,ENE,67,4.0,7.0,71,0.00,,,0.00,0,weatherlink.com 1.10,2013-04-20 07:54:00,
2013-04-20 03:09:00,44.6,36.0,30.13,ESE,110,3.0,9.0,71,0.00,,,0.00,0,weatherlink.com 1.10,2013-04-20 08:09:00,
2013-04-20 03:24:00,44.4,36.0,30.14,ESE,116,2.0,4.0,72,0.00,,,0.00,0,weatherlink.com 1.10,2013-04-20 08:24:00,
2013-04-20 03:39:00,44.3,36.0,30.14,ESE,115,4.0,4.0,72,0.00,,,0.00,0,weatherlink.com 1.10,2013-04-20 08:39:00,
2013-04-20 03:54:00,44.4,36.0,30.14,ESE,116,4.0,4.0,71,0.00,,,0.00,0,weatherlink.com 1.10,2013-04-20 08:54:00,
2013-04-20 04:10:00,43.8,36.0,30.14,ESE,116,3.0,4.0,74,0.00,,,0.00,0,weatherlink.com 1.10,2013-04-20 09:10:00,
2013-04-20 04:25:00,44.4,36.0,30.14,ESE,116,1.0,5.0,72,0.00,,,0.00,0,weatherlink.com 1.10,2013-04-20 09:25:00,
2013-04-20 04:40:00,45.0,36.0,30.13,ESE,116,3.0,3.0,70,0.00,,,0.00,0,weatherlink.com 1.10,2013-04-20 09:40:00,
2013-04-20 04:55:00,45.3,36.0,30.13,ESE,116,2.0,4.0,69,0.00,,,0.00,0,weatherlink.com 1.10,2013-04-20 09:55:00,
2013-04-20 05:10:00,45.2,35.0,30.13,ESE,116,4.0,5.0,68,0.00,,,0.00,0,weatherlink.com 1.10,2013-04-20 10:10:00,
2013-04-20 05:25:00,44.6,35.0,30.12,ESE,116,3.0,7.0,70,0.00,,,0.00,0,weatherlink.com 1.10,2013-04-20 10:25:00,
2013-04-20 05:40:00,44.2,35.0,30.12,ESE,116,4.0,5.0,71,0.00,,,0.00,0,weatherlink.com 1.10,2013-04-20 10:40:00,
2013-04-20 05:55:00,43.4,35.0,30.12,ESE,116,5.0,7.0,73,0.00,,,0.00,0,weatherlink.com 1.10,2013-04-20 10:55:00,
2013-04-20 06:10:00,42.9,35.0,30.12,ESE,117,5.0,5.0,74,0.00,,,0.00,0,weatherlink.com 1.10,2013-04-20 11:10:00,
2013-04-20 06:25:00,42.7,35.0,30.12,SE,124,6.0,8.0,75,0.00,,,0.00,0,weatherlink.com 1.10,2013-04-20 11:25:00,
2013-04-20 06:40:00,43.9,35.0,30.12,SSE,154,7.0,9.0,71,0.00,,,0.00,0,weatherlink.com 1.10,2013-04-20 11:40:00,
2013-04-20 06:55:00,44.0,35.0,30.12,SSE,161,6.0,11.0,70,0.00,,,0.00,5,weatherlink.com 1.10,2013-04-20 11:55:00,
2013-04-20 07:10:00,43.8,35.0,30.13,SSE,162,2.0,6.0,70,0.00,,,0.00,19,weatherlink.com 1.10,2013-04-20 12:10:00,
2013-04-20 07:25:00,44.5,35.0,30.13,SSE,160,6.0,7.0,70,0.00,,,0.00,56,weatherlink.com 1.10,2013-04-20 12:25:00,
2013-04-20 07:40:00,45.6,36.0,30.14,SSE,160,3.0,7.0,69,0.00,,,0.00,111,weatherlink.com 1.10,2013-04-20 12:40:00,
2013-04-20 07:55:00,46.8,37.0,30.15,SE,146,2.0,8.0,68,0.00,,,0.00,121,weatherlink.com 1.10,2013-04-20 12:55:00,
2013-04-20 08:10:00,48.0,37.0,30.15,SE,145,6.0,8.0,67,0.00,,,0.00,232,weatherlink.com 1.10,2013-04-20 13:10:00,
2013-04-20 08:25:00,49.2,37.0,30.15,SSE,156,5.0,9.0,63,0.00,,,0.00,221,weatherlink.com 1.10,2013-04-20 13:25:00,
2013-04-20 08:40:00,50.4,39.0,30.16,SSE,152,6.0,10.0,64,0.00,,,0.00,216,weatherlink.com 1.10,2013-04-20 13:40:00,
2013-04-20 08:55:00,51.4,39.0,30.16,SSE,157,5.0,8.0,64,0.00,,,0.00,422,weatherlink.com 1.10,2013-04-20 13:55:00,
2013-04-20 09:10:00,53.1,39.0,30.16,SSE,153,10.0,11.0,60,0.00,,,0.00,292,weatherlink.com 1.10,2013-04-20 14:10:00,
2013-04-20 09:25:00,54.7,39.0,30.16,SSE,148,7.0,11.0,56,0.00,,,0.00,462,weatherlink.com 1.10,2013-04-20 14:25:00,
2013-04-20 09:40:00,55.8,40.0,30.16,SSE,150,8.0,15.0,55,0.00,,,0.00,334,weatherlink.com 1.10,2013-04-20 14:40:00,
2013-04-20 09:55:00,56.6,39.0,30.17,SSE,153,8.0,13.0,53,0.00,,,0.00,517,weatherlink.com 1.10,2013-04-20 14:55:00,
2013-04-20 10:11:00,58.1,40.0,30.17,SSE,153,14.0,16.0,52,0.00,,,0.00,578,weatherlink.com 1.10,2013-04-20 15:11:00,
2013-04-20 10:26:00,60.8,41.0,30.17,SSE,149,6.0,12.0,49,0.00,,,0.00,675,weatherlink.com 1.10,2013-04-20 15:26:00,
2013-04-20 10:41:00,61.5,39.0,30.17,SSE,149,11.0,18.0,44,0.00,,,0.00,664,weatherlink.com 1.10,2013-04-20 15:41:00,
2013-04-20 10:56:00,62.3,39.0,30.17,ESE,115,12.0,14.0,42,0.00,,,0.00,791,weatherlink.com 1.10,2013-04-20 15:56:00,
2013-04-20 11:11:00,64.6,35.0,30.16,SSE,150,19.0,19.0,34,0.00,,,0.00,752,weatherlink.com 1.10,2013-04-20 16:11:00,
2013-04-20 11:26:00,64.7,37.0,30.16,SE,129,9.0,18.0,36,0.00,,,0.00,823,weatherlink.com 1.10,2013-04-20 16:26:00,
2013-04-20 11:41:00,65.6,36.0,30.15,SE,131,8.0,19.0,34,0.00,,,0.00,860,weatherlink.com 1.10,2013-04-20 16:41:00,
2013-04-20 11:56:00,66.3,38.0,30.15,SE,146,15.0,19.0,35,0.00,,,0.00,884,weatherlink.com 1.10,2013-04-20 16:56:00,
2013-04-20 12:11:00,67.0,36.0,30.14,ESE,119,14.0,19.0,32,0.00,,,0.00,902,weatherlink.com 1.10,2013-04-20 17:11:00,
2013-04-20 12:26:00,67.4,39.0,30.13,SE,124,13.0,17.0,35,0.00,,,0.00,919,weatherlink.com 1.10,2013-04-20 17:26:00,
2013-04-20 12:41:00,67.2,38.0,30.12,SE,137,13.0,20.0,34,0.00,,,0.00,939,weatherlink.com 1.10,2013-04-20 17:41:00,
2013-04-20 12:56:00,68.6,35.0,30.11,SE,136,14.0,20.0,29,0.00,,,0.00,954,weatherlink.com 1.10,2013-04-20 17:56:00,
2013-04-20 13:11:00,68.3,38.0,30.11,East,95,13.0,19.0,33,0.00,,,0.00,962,weatherlink.com 1.10,2013-04-20 18:11:00,
2013-04-20 13:26:00,68.2,36.0,30.09,SE,137,10.0,21.0,31,0.00,,,0.00,972,weatherlink.com 1.10,2013-04-20 18:26:00,
2013-04-20 13:41:00,68.7,38.0,30.09,SE,139,8.0,19.0,33,0.00,,,0.00,967,weatherlink.com 1.10,2013-04-20 18:41:00,
2013-04-20 13:56:00,69.2,37.0,30.08,ESE,120,12.0,23.0,31,0.00,,,0.00,958,weatherlink.com 1.10,2013-04-20 18:56:00,
2013-04-20 14:11:00,69.3,36.0,30.06,SE,130,12.0,19.0,29,0.00,,,0.00,949,weatherlink.com 1.10,2013-04-20 19:11:00,
2013-04-20 14:27:00,69.7,36.0,30.05,East,94,5.0,19.0,29,0.00,,,0.00,935,weatherlink.com 1.10,2013-04-20 19:27:00,
2013-04-20 14:42:00,70.1,36.0,30.05,ESE,102,13.0,20.0,29,0.00,,,0.00,919,weatherlink.com 1.10,2013-04-20 19:42:00,
2013-04-20 14:57:00,69.9,33.0,30.04,East,95,7.0,23.0,26,0.00,,,0.00,902,weatherlink.com 1.10,2013-04-20 19:57:00,
2013-04-20 15:12:00,70.0,35.0,30.04,East,99,17.0,25.0,28,0.00,,,0.00,877,weatherlink.com 1.10,2013-04-20 20:12:00,
2013-04-20 15:27:00,70.2,35.0,30.03,SE,128,17.0,21.0,27,0.00,,,0.00,847,weatherlink.com 1.10,2013-04-20 20:27:00,
2013-04-20 15:42:00,70.3,36.0,30.02,ESE,104,7.0,18.0,29,0.00,,,0.00,807,weatherlink.com 1.10,2013-04-20 20:42:00,
2013-04-20 15:57:00,70.9,39.0,30.01,ESE,116,9.0,18.0,31,0.00,,,0.00,773,weatherlink.com 1.10,2013-04-20 20:57:00,
2013-04-20 16:12:00,70.4,36.0,30.00,ESE,116,9.0,20.0,28,0.00,,,0.00,737,weatherlink.com 1.10,2013-04-20 21:12:00,
2013-04-20 16:27:00,70.6,36.0,30.00,SE,129,9.0,17.0,28,0.00,,,0.00,700,weatherlink.com 1.10,2013-04-20 21:27:00,
2013-04-20 16:42:00,70.5,38.0,29.99,ESE,104,7.0,22.0,30,0.00,,,0.00,652,weatherlink.com 1.10,2013-04-20 21:42:00,
2013-04-20 16:57:00,70.5,35.0,29.99,SE,143,13.0,23.0,27,0.00,,,0.00,610,weatherlink.com 1.10,2013-04-20 21:57:00,
2013-04-20 17:12:00,70.4,33.0,29.98,SE,145,11.0,21.0,25,0.00,,,0.00,563,weatherlink.com 1.10,2013-04-20 22:12:00,
2013-04-20 17:27:00,70.4,30.0,29.98,SE,136,10.0,17.0,22,0.00,,,0.00,515,weatherlink.com 1.10,2013-04-20 22:27:00,
2013-04-20 17:42:00,70.1,33.0,29.98,SE,143,10.0,16.0,25,0.00,,,0.00,459,weatherlink.com 1.10,2013-04-20 22:42:00,
2013-04-20 17:57:00,69.8,34.0,29.98,ESE,117,15.0,16.0,27,0.00,,,0.00,403,weatherlink.com 1.10,2013-04-20 22:57:00,
2013-04-20 18:12:00,69.4,33.0,29.97,East,101,9.0,18.0,26,0.00,,,0.00,346,weatherlink.com 1.10,2013-04-20 23:12:00,
2013-04-20 18:27:00,69.3,35.0,29.97,SE,127,8.0,16.0,28,0.00,,,0.00,288,weatherlink.com 1.10,2013-04-20 23:27:00,
2013-04-20 18:42:00,68.8,34.0,29.97,East,101,10.0,16.0,28,0.00,,,0.00,232,weatherlink.com 1.10,2013-04-20 23:42:00,
2013-04-20 18:57:00,68.1,35.0,29.97,ESE,103,5.0,14.0,29,0.00,,,0.00,174,weatherlink.com 1.10,2013-04-20 23:57:00,
2013-04-20 19:12:00,67.3,36.0,29.97,East,87,3.0,9.0,31,0.00,,,0.00,118,weatherlink.com 1.10,2013-04-21 00:12:00,
2013-04-20 19:27:00,66.4,35.0,29.98,ESE,111,7.0,11.0,31,0.00,,,0.00,63,weatherlink.com 1.10,2013-04-21 00:27:00,
2013-04-20 19:42:00,65.2,35.0,29.98,East,100,8.0,11.0,33,0.00,,,0.00,25,weatherlink.com 1.10,2013-04-21 00:42:00,
2013-04-20 19:57:00,64.1,36.0,29.99,ESE,106,4.0,10.0,35,0.00,,,0.00,7,weatherlink.com 1.10,2013-04-21 00:57:00,
2013-04-20 20:12:00,63.0,35.0,29.99,ESE,106,4.0,9.0,36,0.00,,,0.00,0,weatherlink.com 1.10,2013-04-21 01:12:00,
2013-04-20 20:27:00,62.2,35.0,30.00,ESE,110,3.0,8.0,37,0.00,,,0.00,0,weatherlink.com 1.10,2013-04-21 01:27:00,
2013-04-20 20:42:00,61.8,36.0,30.01,ESE,111,2.0,7.0,38,0.00,,,0.00,0,weatherlink.com 1.10,2013-04-21 01:42:00,
2013-04-20 20:57:00,61.6,36.0,30.02,ESE,117,4.0,9.0,38,0.00,,,0.00,0,weatherlink.com 1.10,2013-04-21 01:57:00,
2013-04-20 21:12:00,61.2,36.0,30.03,ESE,123,3.0,9.0,39,0.00,,,0.00,0,weatherlink.com 1.10,2013-04-21 02:12:00,
2013-04-20 21:27:00,60.7,37.0,30.04,SE,134,5.0,7.0,41,0.00,,,0.00,0,weatherlink.com 1.10,2013-04-21 02:27:00,
2013-04-20 21:42:00,60.7,37.0,30.05,SE,135,4.0,11.0,41,0.00,,,0.00,0,weatherlink.com 1.10,2013-04-21 02:42:00,
2013-04-20 21:57:00,60.7,37.0,30.06,SE,135,5.0,10.0,42,0.00,,,0.00,0,weatherlink.com 1.10,2013-04-21 02:57:00,
2013-04-20 22:12:00,60.8,37.0,30.06,SE,141,6.0,11.0,41,0.00,,,0.00,0,weatherlink.com 1.10,2013-04-21 03:12:00,
2013-04-20 22:27:00,61.2,37.0,30.06,SE,131,8.0,15.0,41,0.00,,,0.00,0,weatherlink.com 1.10,2013-04-21 03:27:00,
2013-04-20 22:42:00,61.0,38.0,30.06,ESE,112,4.0,12.0,42,0.00,,,0.00,0,weatherlink.com 1.10,2013-04-21 03:42:00,
2013-04-20 22:57:00,60.6,38.0,30.06,ESE,123,8.0,12.0,43,0.00,,,0.00,0,weatherlink.com 1.10,2013-04-21 03:57:00,
2013-04-20 23:12:00,59.9,38.0,30.06,ESE,112,7.0,12.0,44,0.00,,,0.00,0,weatherlink.com 1.10,2013-04-21 04:12:00,
2013-04-20 23:27:00,59.5,38.0,30.06,SE,125,8.0,11.0,45,0.00,,,0.00,0,weatherlink.com 1.10,2013-04-21 04:27:00,
2013-04-20 23:42:00,58.7,38.0,30.05,ESE,116,4.0,10.0,47,0.00,,,0.00,0,weatherlink.com 1.10,2013-04-21 04:42:00,
2013-04-20 23:57:00,57.8,39.0,30.06,SE,135,1.0,8.0,49,0.00,,,0.00,0,weatherlink.com 1.10,2013-04-21 04:57:00,